Location: Αθήνα
(37.9839°N, 23.7283°E)
Time: 22:28:25
(UTC+03:00)

EO-79 - Pass Details

Date: 23 June 2024
Orbit: 555 x 577 km, 98.0° (Epoch: 19 July)

Event Time Altitude Azimuth Distance (km) Brightness Sun altitude
Rises 04:01:14 0° 25° (NNE) 2,746 ? -18.8°
Reaches altitude 10° 04:03:37 10° 37° (NE) 1,844 ? -18.5°
Maximum altitude 04:07:03 27° 97° (E) 1,076 ? -18.1°
Enters shadow 04:10:06 12° 153° (SSE) 1,707 ? -17.7°
